TimeCST,TemperatureF,Dew PointF,Humidity,Sea Level PressureIn,VisibilityMPH,Wind Direction,Wind SpeedMPH,Gust SpeedMPH,PrecipitationIn,Events,Conditions,WindDirDegrees,DateUTC
12:53 AM,30.0,26.1,85,30.45,10.0,North,5.8,-,N/A,,Clear,350,2012-11-27 06:53:00
1:53 AM,28.9,25.0,85,30.45,9.0,North,8.1,-,N/A,,Clear,360,2012-11-27 07:53:00
2:53 AM,28.0,25.0,88,30.45,9.0,North,5.8,-,N/A,,Clear,350,2012-11-27 08:53:00
3:53 AM,26.1,23.0,88,30.45,9.0,Variable,3.5,-,N/A,,Clear,0,2012-11-27 09:53:00
4:53 AM,24.1,21.9,91,30.45,9.0,North,4.6,-,N/A,,Clear,350,2012-11-27 10:53:00
5:53 AM,23.0,21.0,92,30.47,8.0,Variable,3.5,-,N/A,,Clear,0,2012-11-27 11:53:00
6:53 AM,23.0,19.9,88,30.49,9.0,Calm,Calm,-,N/A,,Clear,0,2012-11-27 12:53:00
7:53 AM,24.1,21.0,88,30.49,5.0,Calm,Calm,-,N/A,,Clear,0,2012-11-27 13:53:00
8:53 AM,28.9,23.0,78,30.52,10.0,NNE,4.6,-,N/A,,Clear,30,2012-11-27 14:53:00
9:53 AM,30.9,24.1,76,30.51,10.0,SE,3.5,-,N/A,,Clear,130,2012-11-27 15:53:00
10:53 AM,35.1,23.0,61,30.52,10.0,Calm,Calm,-,N/A,,Clear,0,2012-11-27 16:53:00
11:53 AM,39.0,23.0,53,30.47,10.0,Calm,Calm,-,N/A,,Clear,0,2012-11-27 17:53:00
12:53 PM,42.1,23.0,47,30.43,10.0,SE,4.6,-,N/A,,Clear,140,2012-11-27 18:53:00
1:53 PM,45.0,19.9,37,30.38,10.0,South,5.8,-,N/A,,Clear,190,2012-11-27 19:53:00
2:53 PM,46.9,21.0,36,30.35,10.0,SSW,5.8,-,N/A,,Clear,200,2012-11-27 20:53:00
3:53 PM,46.0,21.0,37,30.33,10.0,South,4.6,-,N/A,,Clear,170,2012-11-27 21:53:00
4:53 PM,42.1,23.0,47,30.33,10.0,SSE,4.6,-,N/A,,Clear,150,2012-11-27 22:53:00
5:53 PM,35.1,24.1,64,30.33,10.0,South,3.5,-,N/A,,Clear,190,2012-11-27 23:53:00
6:53 PM,30.0,23.0,75,30.35,10.0,Calm,Calm,-,N/A,,Clear,0,2012-11-28 00:53:00
7:53 PM,27.0,23.0,85,30.35,10.0,Calm,Calm,-,N/A,,Clear,0,2012-11-28 01:53:00
8:53 PM,25.0,21.9,88,30.35,10.0,Calm,Calm,-,N/A,,Clear,0,2012-11-28 02:53:00
9:53 PM,24.1,21.0,88,30.37,10.0,Calm,Calm,-,N/A,,Clear,0,2012-11-28 03:53:00
10:53 PM,23.0,21.0,92,30.38,10.0,Calm,Calm,-,N/A,,Clear,0,2012-11-28 04:53:00
11:53 PM,24.1,21.0,88,30.39,10.0,Calm,Calm,-,N/A,,Clear,0,2012-11-28 05:53:00